CW8014 Weather Reports


time (UTC)temp
C
wind
direction
speed
KPH
gust
KPH
rain 1hr
cm
rain 24hr
cm
rain mn
cm
humidity
%
barometer
mb
20260504040407 12 317 3.2 6.4 0.00 2.03 0.00 97 1011.6
20260504035407 12 325 3.2 6.4 0.00 2.03 0.00 97 1011.6
20260504033407 12 341 1.6 4.8 0.00 2.03 0.00 96 1011.6
20260504032407 12 342 1.6 3.2 0.00 2.03 0.00 96 1011.5
20260504031407 12 355 3.2 6.4 0.00 2.03 0.00 97 1011.5
20260504030407 12 340 4.8 8.0 0.00 2.03 0.00 97 1011.4
20260504025410 12 319 9.7 16.1 0.00 2.03 0.00 96 1011.5
20260504024407 12 350 6.4 12.9 0.00 2.03 0.00 97 1011.1
20260504023407 12 325 6.4 14.5 0.00 2.03 0.00 97 1011.1
20260504022407 12 315 6.4 11.3 0.00 2.03 0.00 97 1011.1
20260504020407 13 311 6.4 12.9 0.00 2.03 0.00 97 1010.9
20260504015407 13 317 6.4 12.9 0.00 2.03 0.00 97 1011.0
20260504013407 13 292 4.8 11.3 0.00 2.03 0.00 97 1010.8
20260504012407 13 310 1.6 4.8 0.00 2.03 0.00 97 1010.7
20260504011407 13 248 3.2 6.4 0.00 2.03 0.00 97 1010.8
20260504010407 13 258 3.2 4.8 0.00 2.03 0.00 97 1010.7
20260504005407 13 236 1.6 6.4 0.00 2.03 0.00 97 1010.6
20260504004407 13 236 1.6 4.8 0.00 2.03 0.00 97 1010.7
20260504003407 13 244 3.2 4.8 0.00 2.03 0.00 97 1010.6
20260504002407 13 228 1.6 3.2 0.00 2.03 0.00 97 1010.5
20260504001407 13 245 1.6 9.7 0.00 2.03 0.00 97 1010.6
20260504000408 13 277 3.2 8.0 0.00 2.03 0.00 97 1010.5
20260503235410 13 237 3.2 9.7 0.00 2.03 0.00 97 1010.5
20260503234407 13 230 0.0 3.2 0.00 2.03 0.00 97 1010.5
20260503231407 13 188 1.6 4.8 0.00 2.03 0.00 97 1010.4
20260503230407 13 209 1.6 4.8 0.00 2.03 0.00 96 1010.3
20260503225406 13 269 3.2 8.0 0.00 2.03 0.00 96 1010.4
20260503224407 13 184 1.6 8.0 0.00 2.03 0.00 96 1010.3
20260503223407 13 222 1.6 3.2 0.00 2.03 0.00 96 1010.3
20260503222407 13 227 1.6 6.4 0.00 2.03 0.00 96 1010.3
20260503221406 13 236 1.6 6.4 0.00 2.03 0.00 96 1010.2
20260503215410 13 232 3.2 6.4 0.00 2.03 2.03 96 1010.3
20260503214410 13 229 1.6 6.4 0.00 2.03 2.03 96 1010.3
20260503213410 13 192 1.6 6.4 0.00 2.03 2.03 96 1010.2
20260503212410 13 175 1.6 6.4 0.00 2.03 2.03 96 1010.2
20260503211413 14 173 3.2 8.0 0.00 2.03 2.03 96 1010.2
20260503210411 14 188 4.8 8.0 0.00 2.03 2.03 96 1010.1
20260503205413 14 180 4.8 9.7 0.00 2.03 2.03 96 1010.1
20260503203410 14 190 3.2 8.0 0.05 2.03 2.03 96 1010.2
20260503202410 14 201 3.2 11.3 0.05 2.03 2.03 96 1010.2
20260503201410 14 178 3.2 11.3 0.05 2.03 2.03 96 1010.2
20260503200410 14 242 3.2 9.7 0.05 2.03 2.03 96 1010.2
20260503195410 15 159 6.4 17.7 0.05 2.03 2.03 96 1010.1
20260503193410 15 207 1.6 6.4 0.00 1.98 1.98 96 1009.9
20260503191410 15 196 4.8 8.0 0.00 1.98 1.98 96 1009.7
20260503190410 15 168 4.8 9.7 0.00 1.98 1.98 96 1009.6
20260503185410 15 208 3.2 9.7 0.00 1.98 1.98 96 1009.6
20260503184410 15 173 3.2 14.5 0.00 1.98 1.98 96 1009.6
20260503183410 15 191 3.2 8.0 0.00 1.98 1.98 96 1009.4
20260503182410 15 180 4.8 11.3 0.00 1.98 1.98 96 1009.3
20260503180410 15 164 4.8 8.0 0.00 1.98 1.98 96 1009.2
20260503175413 15 192 4.8 12.9 0.00 1.98 1.98 96 1009.2
20260503174413 15 213 8.0 12.9 0.05 1.98 1.98 96 1009.1
20260503171410 15 167 3.2 8.0 0.13 1.98 1.98 96 1009.1
20260503170413 15 159 4.8 9.7 0.13 1.98 1.98 96 1009.1
20260503131403 23 184 4.8 11.3 0.00 0.00 0.00 63 1008.0
20260503130403 23 178 11.3 17.7 0.00 0.00 0.00 62 1008.0
20260503110405 23 160 11.3 20.9 0.00 0.00 0.00 61 1009.1
20260503090402 20 113 4.8 11.3 0.00 0.00 0.00 70 1010.2
20260503080407 18 157 6.4 11.3 0.00 0.00 0.00 81 1010.8
20260503072407 17 165 4.8 9.7 0.00 0.00 0.00 82 1010.7
20260503071407 17 160 8.0 17.7 0.00 0.00 0.00 83 1010.7
20260503070407 17 127 4.8 11.3 0.00 0.00 0.00 85 1010.8
20260503054407 14 325 0.0 0.0 0.00 0.00 0.00 94 1010.7
20260503052407 14 325 0.0 0.0 0.00 0.00 0.00 94 1010.9
20260503051407 14 325 0.0 1.6 0.00 0.00 0.00 94 1010.8
20260503050407 13 325 0.0 1.6 0.00 0.00 0.00 94 1010.8
20260503044407 13 325 0.0 0.0 0.00 0.00 0.00 94 1010.9
20260503043407 13 325 1.6 3.2 0.00 0.00 0.00 94 1010.9
20260503042407 13 320 1.6 4.8 0.00 0.00 0.00 93 1010.9
20260503041407 13 167 3.2 6.4 0.00 0.00 0.00 93 1010.9